Wind_Speed
26 25 23 20 19 17 17 14 12 12 11 12 11 8 10 7 7 6 5 4 9 8 9 8 8 7 9 11 12 12 13 19 8 5 15 14 12 15 10 7 9 9 11
27 26 25 21 20 20 18 16 13 11 10 10 10 10 9 8 7 6 4 2 8 7 8 5 5 4 6 6 8 11 15 19 14 13 15 17 16 14 11 12 9 9 10
26 25 26 22 23 22 20 17 15 14 10 12 9 10 7 7 6 9 6 5 3 2 5 2 5 5 3 5 7 8 11 18 20 16 12 17 18 16 15 12 14 9 8
27 26 25 24 25 23 22 20 18 15 13 14 14 10 9 7 8 7 8 6 6 5 5 2 4 3 3 3 5 3 9 13 13 18 16 17 20 19 17 16 18 13 9
32 30 29 27 26 23 23 20 20 16 16 15 13 12 10 10 9 8 9 6 7 5 3 4 4 3 5 4 1 5 14 15 14 16 14 11 15 18 18 19 18 15 10
33 32 29 30 28 26 25 22 21 17 17 16 15 13 13 10 8 7 12 10 7 3 5 9 6 1 2 2 3 8 11 14 13 12 11 13 16 18 25 24 21 14 6
28 26 24 32 33 31 27 23 22 20 18 16 14 13 13 13 10 10 12 10 8 7 7 6 6 7 5 5 5 5 6 7 5 12 16 18 20 25 24 20 23 18 12
27 29 31 34 35 32 30 28 24 22 22 19 17 16 15 14 8 9 11 10 10 10 10 9 8 7 5 7 9 9 6 5 7 6 7 8 14 17 26 27 24 21 15
32 33 33 39 36 35 34 29 26 23 20 18 16 15 14 13 11 12 13 10 11 11 10 7 9 10 8 7 6 11 9 7 6 6 8 8 7 8 14 22 18 17 10
32 37 39 38 36 42 39 31 25 24 23 19 16 13 11 11 10 10 13 13 14 11 10 9 7 3 6 4 7 11 11 10 11 11 10 9 11 10 12 17 21 19 13
18 13 9 25 35 52 19 18 24 26 24 20 17 15 14 13 12 11 12 16 16 13 13 10 8 6 6 6 4 6 7 5 12 10 7 10 10 15 18 17 20 22 19
10 10 13 5 8 14 7 36 26 27 21 21 21 17 15 16 11 9 12 17 16 13 11 10 5 8 7 7 7 8 7 5 6 13 12 13 12 15 20 23 23 25 24
5 10 11 11 12 13 29 43 32 25 28 27 21 21 21 19 13 9 15 17 15 13 10 8 8 9 9 7 5 6 7 10 10 11 12 11 20 20 20 19 20 22 25
6 8 11 11 13 12 27 37 29 24 22 19 22 19 20 23 19 14 13 16 15 12 11 9 9 9 9 9 9 9 10 11 12 12 13 12 12 12 19 25 24 22 23
4 7 3 3 14 17 18 18 22 19 17 19 23 21 19 21 21 15 13 14 13 11 9 7 7 9 8 7 8 8 10 11 15 15 15 16 14 11 6 10 11 17 17
4 13 6 9 9 12 15 11 10 12 14 17 13 16 17 18 16 14 13 12 10 10 9 7 6 8 6 6 6 7 6 3 11 13 10 10 12 13 10 8 5 4 6
17 14 10 6 11 8 12 15 14 12 11 16 15 12 9 17 15 12 10 9 9 8 7 7 7 5 3 1 3 3 3 3 2 3 5 9 11 12 13 13 13 14 20
24 25 25 26 22 22 18 8 10 13 12 14 14 14 16 16 13 10 8 5 5 9 11 11 8 6 4 3 5 6 6 5 5 4 4 4 4 5 6 8 8 8 12
15 17 16 23 21 22 32 25 19 6 14 15 14 12 12 10 9 7 5 4 4 9 13 15 13 11 9 7 5 5 5 6 7 6 6 6 6 6 7 8 9 10 10
15 13 9 13 13 17 21 14 17 21 20 8 10 6 5 6 7 7 9 12 16 20 22 20 16 13 11 9 8 8 6 5 5 6 6 6 6 4 7 9 7 9 10
8 4 7 9 9 12 9 10 11 9 6 8 15 12 7 4 16 17 20 20 24 27 27 26 24 23 21 23 20 16 14 13 12 11 10 10 9 9 8 10 11 13 13
13 10 13 11 6 8 6 2 3 9 7 9 20 20 18 18 23 25 25 25 26 25 23 25 23 20 16 15 14 15 15 15 15 13 13 12 10 14 13 12 11 11 12
11 13 15 12 8 1 3 3 8 20 22 23 22 21 21 22 24 22 21 19 21 22 21 21 24 24 21 19 18 16 15 14 13 10 10 11 8 11 10 11 10 13 13
10 9 9 8 16 20 23 23 23 22 22 24 26 25 25 24 22 22 22 20 21 23 23 23 21 19 15 14 14 15 14 13 12 11 10 8 9 10 10 10 11 11 11
11 11 12 14 19 19 22 22 20 23 24 26 23 23 22 22 21 20 16 18 18 17 16 15 13 13 13 14 14 13 13 12 12 11 11 11 8 9 11 13 11 12 15
11 8 13 17 19 18 20 22 21 20 22 22 21 21 19 19 18 16 14 14 14 14 15 15 11 10 9 10 11 12 13 12 11 10 10 11 11 16 14 14 12 12 14
Wind_Direction
198 202 201 198 199 203 203 199 186 172 169 169 169 158 174 185 195 199 204 254 244 243 241 246 265 263 273 270 268 257 230 209 141 132 182 179 168 161 157 169 169 173 163
199 202 195 193 197 199 205 203 204 183 173 178 180 177 174 184 183 204 231 263 262 256 242 240 285 290 289 283 278 269 249 223 170 145 162 169 177 166 159 162 154 168 168
198 200 194 189 195 196 199 202 198 195 190 184 176 174 181 183 183 194 199 222 212 233 240 227 308 324 304 304 297 293 246 202 186 163 153 173 174 175 163 174 186 173 169
198 201 198 196 198 199 199 200 198 195 193 200 193 193 196 199 210 203 201 201 213 209 236 240 262 295 300 339 333 301 185 163 161 152 153 166 174 174 176 174 161 179 174
199 203 201 201 204 204 198 200 195 194 203 209 201 197 208 207 208 222 193 194 212 208 170 177 228 258 294 274 264 175 164 159 164 158 152 159 177 176 181 179 175 182 194
196 203 202 203 203 205 203 197 197 201 211 210 198 195 195 207 202 203 186 184 187 179 192 183 187 178 70 164 134 159 186 169 173 165 169 182 190 188 190 188 182 179 195
194 201 203 201 199 200 197 201 202 204 209 213 216 206 210 214 218 213 204 201 172 136 124 138 169 162 131 106 148 155 181 200 229 201 193 199 198 204 197 196 201 204 196
193 203 209 199 197 195 193 199 203 206 210 216 219 211 208 201 212 223 205 195 186 158 135 108 150 150 152 140 128 143 157 206 208 210 239 244 240 230 219 211 211 210 204
197 217 209 198 193 195 192 192 199 201 205 212 216 216 209 204 217 230 215 208 187 174 165 134 137 147 153 169 137 161 169 174 184 214 231 236 232 231 221 211 206 202 212
223 217 206 203 198 196 188 191 201 204 200 198 197 218 217 205 214 236 214 200 193 179 171 171 160 174 172 155 165 166 178 192 190 197 209 213 211 208 211 219 222 204 206
309 267 37 349 328 347 150 191 196 196 206 190 187 200 206 222 220 222 215 203 198 179 172 176 190 188 205 194 204 185 175 187 214 226 218 214 216 217 215 224 228 224 208
43 72 68 73 63 334 291 279 228 212 202 185 176 182 214 212 210 204 206 192 193 182 175 163 174 199 197 190 209 215 212 198 192 221 230 223 216 217 222 227 228 229 237
101 93 68 80 94 201 210 237 233 203 194 175 181 192 207 203 197 193 187 194 188 192 187 178 156 165 190 207 224 235 237 241 239 235 249 259 247 260 251 237 239 240 242
131 118 119 120 109 138 193 235 226 201 194 191 190 204 184 187 189 182 183 201 199 200 206 212 212 210 225 236 242 249 247 248 249 253 260 270 295 317 259 244 236 233 231
149 156 153 158 155 170 193 207 205 208 200 201 189 193 178 170 174 170 173 185 189 186 181 189 204 209 220 237 251 267 271 267 263 261 263 276 287 301 268 234 226 235 226
206 198 271 252 260 236 180 155 160 178 185 192 175 164 150 155 155 165 176 184 186 186 198 185 171 194 216 244 288 275 282 328 264 268 274 271 280 288 275 245 248 271 277
35 40 39 347 324 284 179 161 146 139 146 149 153 145 155 148 143 145 149 164 166 163 162 152 161 165 143 344 332 331 354 7 329 313 300 288 287 276 274 277 278 265 270
56 51 63 54 46 49 34 190 158 158 172 159 149 152 150 148 144 145 151 174 172 171 162 149 135 103 94 57 48 35 28 23 26 20 8 354 346 317 306 306 302 289 295
49 52 51 73 65 58 59 13 74 66 199 161 156 160 164 156 140 148 158 123 86 164 163 158 140 116 105 103 87 72 62 46 50 43 27 13 359 338 318 310 310 304 297
58 63 66 73 75 69 66 48 30 51 45 79 139 140 148 162 165 144 115 114 99 98 117 113 116 118 117 112 98 85 65 61 49 35 19 8 6 344 344 326 314 306 303
339 341 75 111 99 101 121 122 105 99 91 100 140 165 151 126 156 127 114 107 102 104 102 95 94 94 94 98 91 92 80 68 56 46 42 43 36 22 346 321 303 311 296
4 337 324 279 236 243 277 307 266 275 275 176 150 146 129 107 105 97 99 101 99 102 105 103 102 93 85 83 82 75 76 66 48 37 37 39 39 24 21 15 14 10 356
17 40 49 56 51 56 67 185 122 119 118 116 110 109 115 111 108 105 102 101 100 102 102 102 96 91 85 78 68 63 62 57 45 34 40 37 29 24 13 14 17 11 7
31 46 50 61 89 91 91 97 115 115 108 106 104 102 105 106 103 110 108 108 107 105 104 105 105 104 92 76 67 60 54 48 37 28 26 14 16 5 2 345 346 344 345
44 49 70 89 99 92 100 101 99 106 106 108 110 110 111 114 113 115 116 120 113 108 106 106 102 91 75 65 54 41 29 18 11 7 4 355 342 346 338 334 330 334 324
60 77 76 97 109 105 106 113 114 116 113 116 117 114 116 118 122 121 112 120 119 124 126 125 114 100 80 59 39 22 7 357 354 352 347 352 351 350 335 312 309 317 313
Height
756 758 760 764 766 768 770 772 774 774 775 777 778 779 782 784 786 788 790 790 790 791 792 792 791 791 791 792 793 794 794 796 799 805 808 812 814 815 818 820 822 823 823
751 753 756 758 762 765 768 771 773 775 775 777 778 779 780 781 782 784 786 787 788 789 790 790 790 789 790 790 790 789 789 790 793 800 801 809 812 814 816 818 820 822 823
749 751 753 755 758 760 764 767 770 771 772 774 776 778 778 779 780 781 782 783 786 787 787 787 787 788 789 788 788 786 785 786 789 792 799 805 810 813 814 818 820 822 823
744 747 749 751 755 758 761 764 768 769 771 773 773 774 776 777 778 779 780 782 782 783 784 785 786 787 787 787 786 785 784 787 790 790 796 802 807 810 813 816 818 821 823
739 742 744 749 754 757 760 763 765 768 771 772 772 773 774 774 776 777 779 780 781 781 780 782 784 784 784 785 785 785 786 789 791 794 796 799 804 807 809 813 816 819 821
731 736 740 745 749 754 758 761 764 768 771 771 770 770 771 772 773 774 776 777 779 780 779 780 782 782 783 783 785 786 787 788 790 793 796 799 800 803 806 809 813 817 819
734 741 742 741 742 745 751 759 764 766 768 771 772 771 770 770 771 772 772 774 776 777 779 778 779 781 782 782 784 786 788 789 790 791 793 796 798 800 805 808 810 812 811
731 733 729 733 735 739 742 745 752 759 764 766 769 769 770 767 768 769 771 771 772 772 775 776 778 779 781 781 782 785 788 789 790 791 793 794 796 799 800 803 806 809 811
719 717 727 727 730 729 731 735 744 749 759 765 768 769 767 765 764 767 767 769 770 770 771 774 776 778 780 782 781 783 786 787 789 790 792 793 794 797 798 803 804 807 808
710 712 708 714 715 712 711 725 739 748 753 759 762 769 768 765 763 764 764 765 767 768 770 772 773 776 778 779 780 780 782 784 785 787 789 791 792 794 796 798 800 802 804
713 713 719 723 723 715 683 725 725 740 751 753 756 765 765 762 762 762 761 762 765 766 766 769 771 772 775 776 779 780 782 783 785 787 788 789 790 791 792 794 795 797 798
717 710 720 720 720 713 734 734 732 737 746 750 751 755 764 759 759 757 760 761 764 764 765 764 769 771 773 775 776 778 780 782 784 787 788 787 787 787 787 788 790 791 792
716 714 714 714 716 713 714 727 733 731 737 739 745 748 755 757 758 758 759 762 761 764 764 764 764 769 772 773 774 775 777 779 781 782 784 785 785 783 783 784 786 788 790
714 712 711 710 703 702 712 721 726 725 729 735 742 745 746 749 754 756 758 763 759 760 762 763 764 766 769 769 770 772 773 775 777 778 780 781 782 782 781 781 782 784 785
710 706 702 698 696 693 702 712 716 725 730 733 736 741 742 746 749 752 756 762 758 756 760 761 763 763 766 767 768 770 771 772 774 775 775 777 777 778 778 778 779 781 782
712 712 709 707 708 710 711 714 718 722 727 729 734 735 738 745 749 751 754 758 757 755 758 758 759 760 762 764 764 766 768 769 770 772 772 773 774 774 775 776 777 779 781
714 711 712 712 712 713 715 717 718 723 728 730 735 734 739 743 747 752 753 757 755 753 756 757 757 758 759 761 764 765 765 767 768 767 770 770 771 772 773 773 774 774 775
720 719 716 717 719 720 723 722 721 722 729 728 731 738 742 744 747 750 753 757 755 751 754 755 757 758 758 761 762 764 766 767 767 768 769 770 770 771 771 770 771 772 772
725 724 724 720 722 722 712 719 717 724 730 730 736 741 744 746 746 750 755 754 751 747 751 753 757 757 760 762 764 765 767 767 765 767 769 769 769 769 769 770 769 769 770
731 730 727 727 726 725 720 729 728 725 732 736 739 742 744 746 748 750 752 754 752 750 752 754 756 757 760 763 764 766 767 766 767 769 769 768 769 770 770 770 769 768 768
735 734 732 730 730 728 730 732 734 735 737 740 740 744 745 745 746 752 751 752 754 754 755 757 759 760 762 762 765 765 766 766 767 768 769 769 768 768 768 767 767 766 765
733 731 730 730 728 730 730 727 728 733 737 738 742 746 748 751 750 751 754 756 756 757 758 759 762 762 764 764 765 767 767 768 768 768 769 769 769 768 767 767 766 765 764
734 731 730 728 727 726 724 726 729 733 736 740 743 748 751 752 752 754 757 758 759 760 760 761 764 765 765 766 767 769 769 768 769 769 769 769 769 769 768 768 766 765 763
735 733 731 732 732 731 731 733 735 737 740 742 746 750 752 754 757 758 759 761 762 763 764 764 767 768 768 769 770 771 770 769 769 769 768 769 769 769 767 766 765 764 764
737 735 734 734 735 735 736 738 742 741 742 744 750 753 754 756 758 759 763 764 763 763 766 768 769 770 770 769 770 771 771 770 769 769 767 767 767 766 765 765 763 762 761
741 740 740 741 742 742 743 745 746 748 747 750 754 754 757 758 760 764 764 764 764 765 767 770 770 769 770 771 770 770 771 771 769 768 767 766 766 765 763 761 760 759 759